Regional Weather Roundup
Issued by NWS Mobile, AL

Home | Current Version | Previous Version | Text Only | Print | Product List | Glossary On
Versions: 1 2 3 4 5 6 7 8 9 10 11 12 13 14 15 16 17 18 19 20 21 22 23 24 25 26 27 28 29 30 31 32 33 34 35 36 37 38 39 40 41 42 43 44 45 46 47 48 49 50
000
ASUS44 KMOB 140110
RWRMOB
REGIONAL WEATHER ROUNDUP
NATIONAL WEATHER SERVICE MOBILE AL
800 PM CDT SUN JUL 13 2014

NOTE: "FAIR" INDICATES FEW OR NO CLOUDS BELOW 12,000 FEET WITH NO
      SIGNIFICANT WEATHER AND/OR OBSTRUCTIONS TO VISIBILITY.

  * THESE STATIONS ARE PART OF THE UNIVERSITY OF SOUTH ALABAMA
    MESONET AND ARE NOT UNDER NWS OR FAA QUALITY CONTROL.

ALZ061>064-140200-
COASTAL ALABAMA

CITY           SKY/WX    TMP DP  RH WIND       PRES   REMARKS
MOBILE REG APT PTCLDY    82  74  76 S7        30.06R
BROOKLEY FIELD PTCLDY    83  74  74 S3        30.06R
USA CAMPUS*      N/A     82  73  74 CALM      30.03R
DOG RIVER*       N/A     82  75  78 S5        30.05R


CITY           SKY/WX    TMP DP  RH WIND       PRES   REMARKS
MOUNT VERNON*    N/A     79  75  89 CALM      30.04R
SARALAND*      NOT AVBL
BAY MINETTE*   NOT AVBL
LOXLEY*          N/A     79  72  78 SW3       30.05R
ROBERTSDALE*     N/A     81  73  78 CALM      30.05R
FAIRHOPE*        N/A     81  73  78 SW3       30.04R
ELBERTA*         N/A     81  70  69 S2        30.05R
FOLEY*         NOT AVBL
GRAND BAY*       N/A     81  73  78 CALM      30.03R
DAUPHIN ISLND* NOT AVBL
BON SCOUR NWR* NOT AVBL
GULF SHORES    PTCLDY    81  73  77 S5        30.05S

$$

ALZ051>060-140200-
INTERIOR SOUTHWEST AND SOUTH CENTRAL ALABAMA

CITY           SKY/WX    TMP DP  RH WIND       PRES   REMARKS
GREENVILLE     PTCLDY    83  71  67 S7        30.03R
EVERGREEN      PTCLDY    81  73  76 CALM      30.05R
CASTLEBERRY*   NOT AVBL
ATMORE*          N/A     81  75  83 CALM      30.06R
DIXIE*         NOT AVBL
ANDALUSIA/OPP  CLEAR     86  71  60 CALM      30.05R
ANDALUSIA*     NOT AVBL
FLORALA APT    CLEAR     81  74  79 S6        30.07R
FLORALA*         N/A     79  73  83 CALM      30.03R

$$

FLZ001>006-140200-
WESTERN FLORIDA PANHANDLE

CITY           SKY/WX    TMP DP  RH WIND       PRES   REMARKS
PENSACOLA      PTCLDY    81  72  74 S7        30.05R
NAS PENSACOLA  PTCLDY    81  73  76 SW7       30.05R
MILTON         PTCLDY    80  72  76 S9        30.05R
WHTNG S FIELD  MOCLDY    81  73  76 S6        30.06R


CITY           SKY/WX    TMP DP  RH WIND       PRES   REMARKS
WALNUT HILL*   NOT AVBL
JAY*           NOT AVBL
DUKE FIELD     PTCLDY    81  76  85 SW6       30.06R
CRESTVIEW      CLEAR     81  75  82 S5        30.07R
VALPARAISO     PTCLDY    82  75  77 S5        30.05R
DESTIN         PTCLDY    84  75  74 VRB3      30.05R

$$

MSZ076-079-140200-
INTERIOR SOUTHEAST MISSISSIPPI

CITY           SKY/WX    TMP DP  RH WIND       PRES   REMARKS
LEAKESVILLE*     N/A     79  72  78 CALM      30.04F
AGRICOLA*      NOT AVBL

$$

MARINE OBSERVATIONS

STATION/POSITION TIME  TEMP    WIND        PRES    WAVE
                       AIR SEA DIR/SP/G            HT/PER
                 (UTC) (F)     (DEG/KT/KT) (MB)    (FT/S)
PASCAGOULA       0100   83     180/  7/  9 1016.9S
PETIT BOIS ISLND 0100   83     190/  8/  9 1017.5S
GRAND BAY        0000   84     200/  8     1018.0S
KATRINA CUT      2300   84     210/  9     1017.6S
CEDAR POINT      0000   83     200/  9     1017.3R
E DAUPHIN ISLAND 0000   83     180/  5/  7 1017.2R
MIDDLE BAY LIGHT 0000   84     190/ 11     1016.9R
USCG MOBILE BAY  0100   84 85  210/  4/  7 1016.4R
STATE DOCKS      0100   85 85              1017.1S
MEAHER PARK      0000   84     190/ 10     1016.9R
WEEKS BAY        0000   85                   N/A
FORT MORGAN      0100   83     220/ 10/ 11 1017.1R
12 S ORANGE BCH  0100   83 87  200/ 10/ 12 1017.6R   1/ 6
PENSACOLA BAY    0100   85 85  220/  4/  8 1017.8R
64 S DAUPHIN ISL 0043   84 90  200/  8/ 10 1017.9R
67 S FORT MORGAN 0000   82                 1017.6R

$$

SELECTED LOCATIONS ACROSS THE REGION

CITY           SKY/WX    TMP DP  RH WIND       PRES   REMARKS
NEW ORLEANS    PTCLDY    82  74  76 E6        30.02S
GULFPORT       CLEAR     86  73  65 S5        30.02F
PASCAGOULA AP  CLEAR     82  74  76 S3        30.04S
PASCAGOULA*      N/A     82  73  74 S2        30.03S
HATTIESBURG    MOCLDY    83  75  77 CALM      30.03F
LAUREL         PTCLDY    79  73  83 NW3       30.04F
MERIDIAN       MOCLDY    85  73  67 SW5       30.03R
JACKSON        MOCLDY    84  75  74 SW3       30.01F
MONTGOMERY     CLEAR     84  73  69 CALM      30.02R
TROY           CLEAR     82  73  74 CALM      30.05R
KINSTON*       NOT AVBL
GENEVA*          N/A     81  73  78 CALM      30.07R
ASHFORD*       NOT AVBL
DOTHAN         CLEAR     82  73  74 SW8       30.09R
PANAMA CITY    MOCLDY    81  73  76 CALM      30.05R

$$




USA.gov is the U.S. government's official web portal to all federal, state and local government web resources and services.